DELTA 1 DEB, 13535

Orbit data source: Space-Track

DELTA 1 DEB, 13535 is space debris in SSO originally from a launch on Thu, 29 Jul 1976 UTC launched from the Air Force Western Test Range (AFWTR). Debris objects in space refer to the collection of defunct objects orbiting the Earth. Examples of debris include non-operational satellites, rocket bodies, and fragments generated from explosions, collisions, or faulty payload assembly.

Loading next visibility...
Identifier
13535, 1976-077EH
Orbit
SSO
Country
Flag of USUS
Related business
Manufacturer
Unknown
Mission
Spacecraft
Bus & Motor
Unknown
Mass
Unknown
Launch date (UTC)
1976-07-29 (50 years ago)
Launch vehicle
Unknown
Launch site
Air Force Western Test Range (AFWTR)
Object type
Payload
Rocket body
Debris
Shape & HBR
Unknown shape, 0.2 m
Radar Cross Section
Small (<0.1 m²)

Expand to show TLE details & history
Last TLE update: 22 hours ago

TLE from 22 hours ago
0 DELTA 1 DEB
1 13535U 76077EH  26033.50765882 -.00000040  00000-0  22988-4 0  9997
2 13535 101.7497  10.3339 0023168 159.8252 323.4341 12.39099778132112
Epoch: 2026-02-02T12:11Z
TLE epoch observation values (Epoch: 2026-02-02T12:11:01.722Z)
Latitude
55.19463°
Longitude
-107.80318°
Altitude
1,504.694 km
Speed
7.124 km/s
True Right ascension
13h 50m 37s
True Declination
55° 02' 55"
Sunlit
Object was in daylight at epoch
Visualization orbit readout
Latitude
Unknown
Longitude
Unknown
Altitude
Unknown
Speed
Unknown
Apparent Right ascension
Unknown
Apparent Declination
Unknown
Sunlit
N/A
Visualization observer readout
Local Sidereal Time
11:43:06
Azimuth
Unknown
Elevation
Unknown
Doppler factor
Unknown
Orbital elements
Apogee altitude
1,526.253 km
Perigee altitude
1,489.712 km
Semi-major axis
7,886.12 km
Eccentricity
0.00232
Inclination
101.7497°
RAAN
10.3339°
Arg. of periapsis
159.8252°
True anomaly
323.27557°
Mean anomaly
323.4341°
Eccentric anomaly
323.35487°
Mean motion
3.09919 °/min
Orbital period
116.16 mins
BSTAR
0.000022988
Loading maneuver chart data...
Computing Atmospheric mass density...
Loading historical data...
Loading historical data...
Loading historical data...
Loading historical data...
Loading historical data...
Loading historical data...
Loading historical data...

Documentation

Showing up to 5 results
|